Find Meteosat 14

NORAD ID: 100530 Int'l Des: 2026-198 Owner: EUMET Country: I-EUM operational
又名: MTG-I2 spacetrack, celestrak

当前视图

正在加载3D地球...

About Meteosat 14

Meteosat 14 (NORAD 100530) is a satellite launched Aug 27, 2026 by EUMET of I-EUM. with a mass of 3800.00 kg.

即将过境

Passes for default location (London). Set your location on the main map for personalized predictions.

高度历史

Loading altitude history...

两行轨道根数

1 A0530U 26198A 26255.93641939 .00000008 00000-0 00000-0 0 9996
2 A0530 1.0011 302.0442 0000289 171.6450 218.8825 1.00269753 211
Epoch: Sep 12, 2026 • Age: 7 hours

当前状态

高度 35785.6 km
远地点 / 近地点 N/A
速度 3.07 km/s
星下点 0.73°N, 3.52°E
发射日期 Aug 27, 2026
运行时间 17 days
类型 weather

技术详情

分类 Payload
质量 3800.00 kg
干质量 2500.00 kg
总质量 3800.00 kg
长度 5.20 m
直径 2.30 m
跨度 10.00 m
形状 Box + 2 pan
制造商 THALES
平台类型 MTG
阶段状态 In Orbit
所有者/国家 EUMET/I-EUM

Most Searched